Location: �terpigny
(49.8910°N, 2.9249°E)
Time: 04:01:19
(UTC+00:00)

BREEZE-M R/B - Pass Details

Date: 24 October 2021
Orbit: 596 x 26570 km, 48.9° (Epoch: 05 December)

Event Time Altitude Azimuth Distance (km) Brightness Sun altitude
Rises 17:54:24 0° 278° (W) 3,355 8.1 -12.7°
Reaches altitude 10° 17:56:53 10° 275° (W) 2,062 6.7 -13.1°
Maximum altitude 18:00:30 69° 192° (SSW) 657 2.7 -13.7°
Enters shadow 18:03:29 19° 111° (ESE) 1,774 4.3 -14.1°
